Sparta, IL

10:40 AM CDT on May 22, 2017 (GMT -0500)
Sparta Community-Hunter

Weather History for KSAR - January, 2012

Change the Weather History Date:

Tuesday, January 24, 2012

  Actual Average (KBLV) Record (KBLV)
Temperature  
Mean Temperature 36 °F -  
Max Temperature 44 °F 44 °F 75 °F (1950)
Min Temperature 28 °F 23 °F -8 °F (1963)
Degree Days  
Heating Degree Days 29    
Moisture  
Dew Point 29 °F    
Average Humidity 77    
Maximum Humidity 93    
Minimum Humidity 57    
Precipitation  
Precipitation 0.00 in - - ()
Sea Level Pressure  
Sea Level Pressure 30.23 in    
Wind  
Wind Speed 1 mph (WNW)    
Max Wind Speed 5 mph    
Max Gust Speed -    
Visibility 10 miles    
Events      
Averages and records for this station are not official NWS values.
T = Trace of Precipitation, MM = Missing Value Source: NWS Daily Summary

Daily Weather History Graph

Daily Weather History Graph

Search for Another Location

Airport or City:

Trip Planner

Search our weather history database for the weather conditions in past years. The results will help you decide how hot, cold, wet, or windy it might be!

Date:

Astronomy

Jan. 24, 2012 Rise Set
Actual Time 7:09 AM CST 5:12 PM CST
Civil Twilight 6:41 AM CST 5:40 PM CST
Nautical Twilight 6:09 AM CST 6:12 PM CST
Astronomical Twilight 5:38 AM CST 6:43 PM CST
Moon 7:41 AM CST (1/24) 7:01 PM CST (1/24)
Length of Visible Light 10h 58m
Length of Day
10h 02m
New Moon, 2% of the Moon is Illuminated
Jan 24
New Moon
Jan 30
First Quarter
Feb 7
Full
Feb 14
Last Quarter
Feb 21
New

Hourly Weather History & Observations

Time (CST) Temp. Windchill Dew Point Humidity Pressure Visibility Wind Dir Wind Speed Gust Speed Precip Events Conditions
12:15 AM 33.8 °F 30.8 °F 28.4 °F 81% 30.10 in 10.0 mi WNW 3.5 mph - N/A   Clear
12:35 AM 33.8 °F - 28.4 °F 81% 30.10 in 10.0 mi Calm Calm - N/A   Clear
12:55 AM 32.0 °F - 26.6 °F 80% 30.11 in 10.0 mi Calm Calm - N/A   Clear
1:15 AM 32.0 °F - 26.6 °F 80% 30.12 in 10.0 mi Calm Calm - N/A   Clear
1:35 AM 32.0 °F - 26.6 °F 80% 30.12 in 10.0 mi Calm Calm - N/A   Clear
1:55 AM 30.2 °F 26.7 °F 26.6 °F 86% 30.13 in 10.0 mi WSW 3.5 mph - N/A   Clear
2:15 AM 30.2 °F 26.7 °F 26.6 °F 86% 30.14 in 10.0 mi WSW 3.5 mph - N/A   Clear
2:35 AM 30.2 °F 26.7 °F 26.6 °F 86% 30.14 in 10.0 mi WSW 3.5 mph - N/A   Clear
2:55 AM 30.2 °F 26.7 °F 26.6 °F 86% 30.14 in 10.0 mi WSW 3.5 mph - N/A   Clear
3:15 AM 30.2 °F 26.7 °F 26.6 °F 86% 30.13 in 10.0 mi West 3.5 mph - N/A   Clear
3:35 AM 30.2 °F - 26.6 °F 86% 30.14 in 10.0 mi Calm Calm - N/A   Clear
3:55 AM 30.2 °F - 26.6 °F 86% 30.15 in 10.0 mi Calm Calm - N/A   Clear
4:15 AM 30.2 °F - 26.6 °F 86% 30.16 in 10.0 mi Calm Calm - N/A   Clear
4:35 AM 30.2 °F - 26.6 °F 86% 30.17 in 10.0 mi Calm Calm - N/A   Clear
4:55 AM 30.2 °F - 26.6 °F 86% 30.18 in 10.0 mi Calm Calm - N/A   Clear
5:15 AM 30.2 °F - 26.6 °F 86% 30.19 in 10.0 mi Calm Calm - N/A   Clear
5:35 AM 30.2 °F - 26.6 °F 86% 30.19 in 10.0 mi Calm Calm - N/A   Clear
5:55 AM 28.4 °F - 26.6 °F 93% 30.21 in 10.0 mi Calm Calm - N/A   Clear
6:15 AM 28.4 °F - 26.6 °F 93% 30.21 in 10.0 mi Calm Calm - N/A   Clear
6:35 AM 28.4 °F - 26.6 °F 93% 30.22 in 10.0 mi Calm Calm - N/A   Clear
6:55 AM 28.4 °F - 26.6 °F 93% 30.23 in 10.0 mi Calm Calm - N/A   Clear
7:15 AM 28.4 °F - 26.6 °F 93% 30.23 in 10.0 mi Calm Calm - N/A   Clear
7:35 AM 28.4 °F - 26.6 °F 93% 30.24 in 10.0 mi Calm Calm - N/A   Clear
7:55 AM 30.2 °F - 26.6 °F 86% 30.24 in 10.0 mi Calm Calm - N/A   Clear
8:15 AM 30.2 °F - 26.6 °F 86% 30.25 in 10.0 mi Calm Calm - N/A   Clear
8:35 AM 30.2 °F - 26.6 °F 86% 30.26 in 10.0 mi Calm Calm - N/A   Clear
8:55 AM 32.0 °F - 26.6 °F 80% 30.26 in 10.0 mi Calm Calm - N/A   Clear
9:15 AM 33.8 °F 29.6 °F 28.4 °F 81% 30.28 in 10.0 mi West 4.6 mph - N/A   Clear
9:35 AM 33.8 °F - 28.4 °F 81% 30.29 in 10.0 mi Calm Calm - N/A   Clear
9:55 AM 35.6 °F 32.8 °F 28.4 °F 75% 30.30 in 10.0 mi West 3.5 mph - N/A   Clear
10:15 AM 35.6 °F 31.7 °F 28.4 °F 75% 30.30 in 10.0 mi WSW 4.6 mph - N/A   Clear
10:35 AM 37.4 °F 33.8 °F 28.4 °F 70% 30.30 in 10.0 mi West 4.6 mph - N/A   Clear
10:55 AM 37.4 °F - 28.4 °F 70% 30.31 in 10.0 mi Calm Calm - N/A   Clear
11:15 AM 37.4 °F - 28.4 °F 70% 30.31 in 10.0 mi Calm Calm - N/A   Clear
11:35 AM 39.2 °F - 28.4 °F 65% 30.30 in 10.0 mi Calm Calm - N/A   Clear
11:55 AM 39.2 °F 35.9 °F 30.2 °F 70% 30.29 in 10.0 mi WNW 4.6 mph - N/A   Clear
12:15 PM 39.2 °F 35.9 °F 30.2 °F 70% 30.29 in 10.0 mi WNW 4.6 mph - N/A   Clear
12:35 PM 41.0 °F 38.0 °F 32.0 °F 70% 30.28 in 10.0 mi West 4.6 mph - N/A   Clear
1:15 PM 42.8 °F 41.1 °F 30.2 °F 61% 30.28 in 10.0 mi WNW 3.5 mph - N/A   Clear
1:35 PM 42.8 °F - 30.2 °F 61% 30.28 in 10.0 mi Calm Calm - N/A   Clear
1:55 PM 42.8 °F - 30.2 °F 61% 30.28 in 10.0 mi Calm Calm - N/A   Clear
2:15 PM 44.6 °F - 33.8 °F 66% 30.28 in 10.0 mi Calm Calm - N/A   Clear
2:35 PM 44.6 °F 42.2 °F 33.8 °F 66% 30.27 in 10.0 mi North 4.6 mph - N/A   Clear
2:55 PM 44.6 °F 43.1 °F 32.0 °F 61% 30.27 in 10.0 mi NW 3.5 mph - N/A   Clear
3:15 PM 44.6 °F 43.1 °F 32.0 °F 61% 30.27 in 10.0 mi NNE 3.5 mph - N/A   Clear
3:35 PM 44.6 °F - 32.0 °F 61% 30.28 in 10.0 mi Calm Calm - N/A   Clear
3:55 PM 44.6 °F - 30.2 °F 57% 30.28 in 10.0 mi Calm Calm - N/A   Clear
4:15 PM 44.6 °F - 32.0 °F 61% 30.29 in 10.0 mi Calm Calm - N/A   Clear
4:35 PM 44.6 °F - 30.2 °F 57% 30.28 in 10.0 mi Calm Calm - N/A   Clear
4:55 PM 42.8 °F - 32.0 °F 66% 30.29 in 10.0 mi Calm Calm - N/A   Clear
5:15 PM 42.8 °F - 30.2 °F 61% 30.29 in 10.0 mi Calm Calm - N/A   Clear
5:35 PM 39.2 °F - 32.0 °F 75% 30.30 in 10.0 mi Calm Calm - N/A   Clear
5:55 PM 37.4 °F 33.8 °F 30.2 °F 75% 30.32 in 10.0 mi East 4.6 mph - N/A   Clear
6:15 PM 35.6 °F 31.7 °F 32.0 °F 87% 30.32 in 10.0 mi East 4.6 mph - N/A   Clear
6:35 PM 35.6 °F 29.2 °F 30.2 °F 81% 30.31 in 10.0 mi East 8.1 mph - N/A   Clear
6:55 PM 35.6 °F 29.9 °F 32.0 °F 87% 30.30 in 10.0 mi ENE 6.9 mph - N/A   Clear
7:15 PM 35.6 °F 31.7 °F 30.2 °F 81% 30.31 in 10.0 mi East 4.6 mph - N/A   Clear
7:35 PM 33.8 °F 28.6 °F 30.2 °F 87% 30.31 in 10.0 mi ENE 5.8 mph - N/A   Clear
7:55 PM 35.6 °F 32.8 °F 30.2 °F 81% 30.32 in 10.0 mi ESE 3.5 mph - N/A   Clear
8:15 PM 33.8 °F 29.6 °F 30.2 °F 87% 30.32 in 10.0 mi East 4.6 mph - N/A   Clear
8:35 PM 33.8 °F 29.6 °F 30.2 °F 87% 30.32 in 10.0 mi East 4.6 mph - N/A   Clear
8:55 PM 32.0 °F 26.4 °F 28.4 °F 87% 30.31 in 10.0 mi ENE 5.8 mph - N/A   Clear
9:15 PM 33.8 °F 30.8 °F 30.2 °F 87% 30.32 in 10.0 mi ESE 3.5 mph - N/A   Clear
9:35 PM 33.8 °F 29.6 °F 30.2 °F 87% 30.32 in 10.0 mi East 4.6 mph - N/A   Clear
9:55 PM 32.0 °F 27.5 °F 28.4 °F 87% 30.32 in 10.0 mi East 4.6 mph - N/A   Clear
10:15 PM 32.0 °F 26.4 °F 28.4 °F 87% 30.32 in 10.0 mi East 5.8 mph - N/A   Clear
10:35 PM 30.2 °F 25.4 °F 28.4 °F 93% 30.32 in 10.0 mi East 4.6 mph - N/A   Clear
10:55 PM 32.0 °F 27.5 °F 28.4 °F 87% 30.32 in 10.0 mi East 4.6 mph - N/A   Clear
11:15 PM 30.2 °F 24.3 °F 28.4 °F 93% 30.30 in 10.0 mi East 5.8 mph - N/A   Clear
11:35 PM 32.0 °F 27.5 °F 28.4 °F 87% 30.30 in 10.0 mi East 4.6 mph - N/A   Clear
11:55 PM 32.0 °F 27.5 °F 28.4 °F 87% 30.30 in 10.0 mi East 4.6 mph - N/A   Clear